Hourly Weather Holubtsi

Today, 22 April, Thursday

Time Temperature Precipitation Wind Pressure Humidity
00:00 +4°C° 0 mm 3 mps 749 mmHg 88%
01:00 +4°C° 0 mm 3 mps 749 mmHg 88%
02:00 +4°C° 0 mm 3 mps 749 mmHg 89%
03:00 +4°C° 0 mm 3 mps 750 mmHg 89%
04:00 +3°C° 0 mm 3 mps 750 mmHg 90%
05:00 +3°C° 0 mm 3 mps 750 mmHg 90%
06:00 +5°C° 0 mm 4 mps 750 mmHg 84%
07:00 +7°C° 0 mm 4 mps 750 mmHg 78%
08:00 +10°C° 0 mm 4 mps 751 mmHg 72%
09:00 +12°C° 0 mm 5 mps 751 mmHg 66%
10:00 +13°C° 0 mm 5 mps 751 mmHg 61%
11:00 +15°C° 0 mm 5 mps 751 mmHg 55%
12:00 +15°C° 0.3 mm 6 mps 751 mmHg 53%
13:00 +16°C° 0.3 mm 6 mps 750 mmHg 50%
14:00 +16°C° 0.3 mm 6 mps 750 mmHg 48%
15:00 +15°C° 0.1 mm 6 mps 750 mmHg 52%
16:00 +15°C° 0.1 mm 5 mps 750 mmHg 55%
17:00 +14°C° 0.1 mm 5 mps 750 mmHg 59%
18:00 +13°C° 0 mm 4 mps 750 mmHg 64%
19:00 +12°C° 0 mm 4 mps 751 mmHg 69%
20:00 +10°C° 0 mm 4 mps 751 mmHg 74%
21:00 +10°C° 0 mm 4 mps 751 mmHg 73%
22:00 +9°C° 0 mm 5 mps 750 mmHg 72%
23:00 +9°C° 0 mm 5 mps 750 mmHg 71%

Tomorrow, 23 April, Friday

Time Temperature Precipitation Wind Pressure Humidity
00:00 +9°C° 0 mm 5 mps 750 mmHg 72%
01:00 +9°C° 0 mm 5 mps 750 mmHg 72%
02:00 +9°C° 0 mm 5 mps 750 mmHg 73%
03:00 +8°C° 0 mm 5 mps 749 mmHg 76%
04:00 +8°C° 0 mm 5 mps 749 mmHg 78%
05:00 +7°C° 0 mm 5 mps 749 mmHg 80%
06:00 +8°C° 0.1 mm 5 mps 749 mmHg 80%
07:00 +9°C° 0.1 mm 5 mps 749 mmHg 80%
08:00 +9°C° 0.1 mm 5 mps 749 mmHg 80%
09:00 +10°C° 0.8 mm 4 mps 749 mmHg 82%
10:00 +10°C° 0.8 mm 4 mps 749 mmHg 84%
11:00 +10°C° 0.8 mm 4 mps 749 mmHg 86%
12:00 +8°C° 0.8 mm 4 mps 749 mmHg 87%
13:00 +7°C° 0.8 mm 4 mps 749 mmHg 88%
14:00 +6°C° 0.8 mm 5 mps 749 mmHg 90%
15:00 +6°C° 0.4 mm 4 mps 749 mmHg 88%
16:00 +6°C° 0.4 mm 4 mps 749 mmHg 87%
17:00 +5°C° 0.4 mm 4 mps 749 mmHg 85%
18:00 +5°C° 0 mm 4 mps 749 mmHg 85%
19:00 +5°C° 0 mm 3 mps 749 mmHg 84%
20:00 +5°C° 0 mm 2 mps 749 mmHg 84%
21:00 +5°C° 0 mm 2 mps 749 mmHg 86%
22:00 +3°C° 0 mm 3 mps 749 mmHg 88%
23:00 +3°C° 0 mm 3 mps 749 mmHg 90%

Day after tomorrow, 24 April, Saturday

Time Temperature Precipitation Wind Pressure Humidity
00:00 +3°C° 0 mm 3 mps 749 mmHg 89%
01:00 +2°C° 0 mm 3 mps 749 mmHg 89%
02:00 +2°C° 0 mm 3 mps 748 mmHg 89%
03:00 +2°C° 0 mm 3 mps 748 mmHg 89%
04:00 +2°C° 0 mm 3 mps 748 mmHg 89%
05:00 +1°C° 0 mm 3 mps 748 mmHg 89%
06:00 +3°C° 0 mm 4 mps 748 mmHg 81%
07:00 +4°C° 0 mm 4 mps 749 mmHg 73%
08:00 +5°C° 0 mm 4 mps 749 mmHg 64%
09:00 +3°C° 0.2 mm 5 mps 749 mmHg 71%
10:00 +2°C° 0.2 mm 6 mps 749 mmHg 78%
11:00 +2°C° 0.2 mm 7 mps 749 mmHg 85%
12:00 +3°C° 0.1 mm 7 mps 749 mmHg 73%
13:00 +4°C° 0.1 mm 8 mps 749 mmHg 62%
14:00 +5°C° 0.1 mm 8 mps 749 mmHg 50%
15:00 +5°C° 0.2 mm 7 mps 749 mmHg 54%
16:00 +4°C° 0.2 mm 7 mps 750 mmHg 57%
17:00 +4°C° 0.2 mm 7 mps 750 mmHg 61%
18:00 +3°C° 0 mm 6 mps 750 mmHg 65%
19:00 +3°C° 0 mm 4 mps 751 mmHg 68%
20:00 +2°C° 0 mm 3 mps 751 mmHg 72%
21:00 +1°C° 0 mm 3 mps 751 mmHg 73%
22:00 +1°C° 0 mm 3 mps 751 mmHg 74%
23:00 0°C° 0 mm 3 mps 751 mmHg 76%

25 April, Sunday

Time Temperature Precipitation Wind Pressure Humidity
00:00 0°C° 0 mm 3 mps 752 mmHg 77%
01:00 0°C° 0 mm 3 mps 752 mmHg 79%
02:00 0°C° 0 mm 3 mps 752 mmHg 80%
03:00 -1°C° 0 mm 3 mps 752 mmHg 81%
04:00 -1°C° 0 mm 3 mps 752 mmHg 81%
05:00 -1°C° 0 mm 3 mps 751 mmHg 82%
06:00 0°C° 0 mm 4 mps 751 mmHg 74%
07:00 +3°C° 0 mm 4 mps 751 mmHg 66%
08:00 +5°C° 0 mm 5 mps 751 mmHg 58%
09:00 +6°C° 0 mm 5 mps 751 mmHg 54%
10:00 +7°C° 0 mm 6 mps 751 mmHg 50%
11:00 +8°C° 0 mm 6 mps 751 mmHg 47%
12:00 +7°C° 0.1 mm 6 mps 751 mmHg 55%
13:00 +7°C° 0.1 mm 6 mps 751 mmHg 64%
14:00 +5°C° 0.1 mm 7 mps 751 mmHg 73%
15:00 +5°C° 0.5 mm 6 mps 751 mmHg 77%
16:00 +5°C° 0.5 mm 5 mps 750 mmHg 81%
17:00 +4°C° 0.5 mm 4 mps 750 mmHg 85%
18:00 +4°C° 0.6 mm 3 mps 750 mmHg 88%
19:00 +3°C° 0.6 mm 3 mps 750 mmHg 91%
20:00 +4°C° 0.6 mm 2 mps 750 mmHg 94%
21:00 +3°C° 0.1 mm 2 mps 750 mmHg 95%
22:00 +3°C° 0.1 mm 2 mps 750 mmHg 96%
23:00 +2°C° 0.1 mm 2 mps 750 mmHg 97%

26 April, Monday

Time Temperature Precipitation Wind Pressure Humidity
00:00 +2°C° 0 mm 2 mps 750 mmHg 96%
01:00 +2°C° 0 mm 2 mps 750 mmHg 96%
02:00 +1°C° 0 mm 2 mps 750 mmHg 96%
03:00 +1°C° 0 mm 2 mps 750 mmHg 95%
04:00 +1°C° 0 mm 2 mps 749 mmHg 94%
05:00 +1°C° 0 mm 2 mps 749 mmHg 93%
06:00 +2°C° 0 mm 2 mps 749 mmHg 85%
07:00 +4°C° 0 mm 2 mps 749 mmHg 78%
08:00 +5°C° 0 mm 2 mps 749 mmHg 70%
09:00 +5°C° 0 mm 3 mps 749 mmHg 63%
10:00 +7°C° 0 mm 3 mps 749 mmHg 55%
11:00 +7°C° 0 mm 4 mps 749 mmHg 48%
12:00 +7°C° 0.3 mm 4 mps 748 mmHg 49%
13:00 +7°C° 0.3 mm 5 mps 748 mmHg 51%
14:00 +7°C° 0.3 mm 6 mps 748 mmHg 52%
15:00 +7°C° 0.3 mm 6 mps 748 mmHg 57%
16:00 +6°C° 0.3 mm 5 mps 748 mmHg 61%
17:00 +6°C° 0.3 mm 5 mps 747 mmHg 66%
18:00 +4°C° 0.1 mm 4 mps 748 mmHg 70%
19:00 +3°C° 0.1 mm 4 mps 748 mmHg 74%
20:00 +2°C° 0.1 mm 3 mps 748 mmHg 78%
21:00 +1°C° 0 mm 3 mps 748 mmHg 79%
22:00 +1°C° 0 mm 3 mps 748 mmHg 80%
23:00 0°C° 0 mm 3 mps 748 mmHg 82%

27 April, Tuesday

Time Temperature Precipitation Wind Pressure Humidity
00:00 0°C° 0 mm 3 mps 748 mmHg 82%
01:00 0°C° 0 mm 3 mps 749 mmHg 83%
02:00 0°C° 0 mm 3 mps 749 mmHg 84%
03:00 0°C° 0 mm 3 mps 749 mmHg 84%
04:00 -1°C° 0 mm 3 mps 749 mmHg 85%
05:00 -1°C° 0 mm 3 mps 749 mmHg 85%
06:00 0°C° 0 mm 4 mps 749 mmHg 78%
07:00 +2°C° 0 mm 5 mps 749 mmHg 70%
08:00 +5°C° 0 mm 5 mps 749 mmHg 62%
09:00 +5°C° 0 mm 6 mps 749 mmHg 59%
10:00 +7°C° 0 mm 6 mps 749 mmHg 55%
11:00 +8°C° 0 mm 6 mps 749 mmHg 52%
12:00 +8°C° 0 mm 6 mps 749 mmHg 52%
13:00 +8°C° 0 mm 6 mps 749 mmHg 52%
14:00 +8°C° 0 mm 5 mps 749 mmHg 52%
15:00 +9°C° 0 mm 5 mps 749 mmHg 54%
16:00 +10°C° 0 mm 4 mps 749 mmHg 56%
17:00 +10°C° 0 mm 3 mps 749 mmHg 58%
18:00 +8°C° 0 mm 3 mps 749 mmHg 61%
19:00 +7°C° 0 mm 2 mps 749 mmHg 65%
20:00 +6°C° 0 mm 2 mps 749 mmHg 68%
21:00 +5°C° 0 mm 2 mps 749 mmHg 71%
22:00 +5°C° 0 mm 2 mps 749 mmHg 73%
23:00 +5°C° 0 mm 2 mps 749 mmHg 75%
Show more

We Need Your Consent

Meteoprog and our Service Providers may store and access personal data such as cookies, device identifiers or other similar technologies on your device and process such data to personalise content and ads, as well as provide social media features and to analyse the traffic.

  • Store and/or access information on your device

    Cookies, device identifiers or other information can be stored or accessed on your device for the purposes indicated above.

  • Personalised ads and content, ad and content measurement, audience insights, and products development

    Ads and content can be personalised based on a profile. More data can be added to better personalise ads and content. Ad and content performance can be measured. Insights about the audience who saw the ads and content can be derived. Such data can be used to develop or improve user’s experience, systems and software.

By clicking ‘I Agree’ you will allow the use of indicated cookies, device identifiers, web beacons or other similar technologies. Your settings can be changed in the browser on your device.

For certain purposes, legitimate interests may be relied on, rather than consent. You can read more about this in our Privacy and Cookie Policy.